Weather History for Denver Centennial, CO

Change the Weather History Date:

Friday, November 1, 2013

  Actual Average Record
Temperature  
Mean Temperature 40 °F -  
Max Temperature 49 °F 53 °F 73 °F (2008)
Min Temperature 30 °F 29 °F 17 °F (2002)
Degree Days  
Heating Degree Days 25    
Month to date heating degree days 25  
Moisture  
Dew Point 24 °F    
Average Humidity 53    
Maximum Humidity 76    
Minimum Humidity 29    
Precipitation  
Precipitation 0.00 in - - ()
Month to date precipitation 0.00  
Year to date precipitation 17.20  
Sea Level Pressure  
Sea Level Pressure 30.12 in    
Wind  
Wind Speed 7 mph (North)    
Max Wind Speed 26 mph    
Max Gust Speed 39 mph    
Visibility 10 miles    
Events      
Averages and records for this station are not official NWS values.
T = Trace of Precipitation, MM = Missing Value Source: NWS Daily Summary

Daily Weather History Graph

Daily Weather History Graph

Search for Another Location

Airport:

Trip Planner

Search our weather history database for the weather conditions in past years. The results will help you decide how hot, cold, wet, or windy it might be!

Date:

Astronomy

Nov. 01, 2013 Rise Set
Actual Time 7:28 AM MDT 5:57 PM MDT
Civil Twilight 7:00 AM MDT 6:25 PM MDT
Nautical Twilight 6:28 AM MDT 6:57 PM MDT
Astronomical Twilight 5:56 AM MDT 7:28 PM MDT
Moon 5:23 AM MDT (11/1) 4:51 PM MDT (11/1)
Length of Visible Light 11h 25m
Length of Day
10h 29m
Waning Crescent, 4% of the Moon is Illuminated
Nov 1
Waning Crescent
Nov 3
New
Nov 9
First Quarter
Nov 17
Full
Nov 25
Last Quarter

Hourly Weather History & Observations

Time (MDT) Temp. Windchill Dew Point Humidity Pressure Visibility Wind Dir Wind Speed Gust Speed Precip Events Conditions
12:53 AM 39.0 °F 34.8 °F 19.9 °F 46% 29.88 in 10.0 mi West 5.8 mph - N/A   Clear
1:53 AM 43.0 °F 41.3 °F 21.9 °F 43% 29.90 in 10.0 mi West 3.5 mph - N/A   Overcast
2:53 AM 42.1 °F 37.7 °F 24.1 °F 49% 29.91 in 10.0 mi West 6.9 mph - N/A   Overcast
3:53 AM 39.0 °F 35.7 °F 24.1 °F 55% 29.95 in 10.0 mi West 4.6 mph - N/A   Mostly Cloudy
4:53 AM 37.9 °F 35.5 °F 24.1 °F 57% 29.97 in 10.0 mi NE 3.5 mph - N/A   Mostly Cloudy
5:53 AM 35.1 °F 32.2 °F 24.1 °F 64% 30.02 in 10.0 mi SE 3.5 mph - N/A   Scattered Clouds
6:53 AM 35.1 °F 32.2 °F 25.0 °F 67% 30.06 in 10.0 mi South 3.5 mph - N/A   Mostly Cloudy
7:53 AM 33.1 °F 28.7 °F 26.1 °F 75% 30.10 in 10.0 mi ESE 4.6 mph - N/A   Mostly Cloudy
8:53 AM 37.0 °F 31.6 °F 30.0 °F 76% 30.14 in 10.0 mi East 6.9 mph - N/A   Mostly Cloudy
9:53 AM 39.9 °F 35.1 °F 30.0 °F 68% 30.17 in 10.0 mi NE 6.9 mph - N/A   Mostly Cloudy
10:53 AM 42.1 °F 37.7 °F 28.9 °F 60% 30.20 in 10.0 mi North 6.9 mph - N/A   Mostly Cloudy
11:53 AM 43.0 °F 36.0 °F 27.0 °F 53% 30.20 in 10.0 mi NE 13.8 mph - N/A   Mostly Cloudy
12:53 PM 44.1 °F 38.1 °F 28.0 °F 53% 30.17 in 10.0 mi NE 11.5 mph 17.3 mph N/A   Overcast
1:53 PM 45.0 °F 42.6 °F 26.1 °F 48% 30.14 in 10.0 mi Variable 4.6 mph - N/A   Scattered Clouds
2:53 PM 46.9 °F - 26.1 °F 44% 30.13 in 10.0 mi NNE 3.5 mph - N/A   Mostly Cloudy
3:53 PM 48.9 °F - 21.0 °F 33% 30.14 in 10.0 mi North 10.4 mph 19.6 mph N/A   Scattered Clouds
4:53 PM 48.0 °F - 17.1 °F 29% 30.16 in 10.0 mi NW 23.0 mph 29.9 mph N/A   Partly Cloudy
5:53 PM 46.0 °F 39.3 °F 18.0 °F 33% 30.18 in 10.0 mi NNW 16.1 mph 24.2 mph N/A   Partly Cloudy
6:53 PM 43.0 °F 38.2 °F 19.0 °F 38% 30.22 in 10.0 mi NW 8.1 mph - N/A   Partly Cloudy
7:53 PM 42.1 °F 38.4 °F 19.0 °F 40% 30.25 in 10.0 mi NW 5.8 mph - N/A   Partly Cloudy
8:53 PM 39.0 °F - 19.0 °F 45% 30.26 in 10.0 mi Calm Calm - N/A   Clear
9:53 PM 32.0 °F 24.8 °F 21.9 °F 66% 30.27 in 10.0 mi South 8.1 mph - N/A   Clear
10:53 PM 34.0 °F 26.6 °F 21.9 °F 61% 30.26 in 10.0 mi South 9.2 mph - N/A   Clear
11:53 PM 30.9 °F 25.2 °F 21.9 °F 69% 30.25 in 10.0 mi SSE 5.8 mph - N/A   Clear